ASIASAT 5

Last updated on Jan. 17, 2021, 6:29 a.m. UTC

1 35696U 09042A   21016.78105201 -.00000312  00000-0  00000-0 0  9995
2 35696   0.0029 301.1402 0001665 324.8618 232.0992  1.00271231 41866
UTC
Height (km)
Latitude
Longitude
Inclination
Orbital Period
UTC large
Height (km)
Speed (km/s)
/
Latitude / Longitude
Inclination (degrees)
Orbital Period (minutes)
Azimuth
Elevation
Range (km)
Doppler Factor
iOS Compass Heading
iOS Angle

Next 30 passes for location: Hong Kong

Rise time Rise Azimuth (degrees) Set time Set Azimuth (degrees) Duration Max altitude (degrees)

No matching passes for this satellites